Location: Silent Lake
(44.9206°N, 78.0708°W)
Time: 04:25:14
(UTC-04:00)

USA 81 - Pass Details

Date: 19 April 2018
Orbit: 784 x 789 km, 85.0° (Epoch: 01 May)

Event Time Altitude Azimuth Distance (km) Brightness Sun altitude
Rises 22:23:45 0° 353° (N) 3,291 8.1 -22.1°
Reaches altitude 10° 22:26:07 10° 353° (N) 2,357 7.2 -22.4°
Maximum altitude 22:31:24 82° 267° (W) 798 4.0 -23.0°
Enters shadow 22:32:58 47° 185° (S) 1,033 4.3 -23.2°
